Location: Cheyres
(46.8153°N, 6.7877°E)
Time: 02:06:07
(UTC+00:00)

CUBEBUG 2 - Pass Details

Date: 07 July 2022
Orbit: 584 x 693 km, 97.7° (Epoch: 09 August)

Event Time Altitude Azimuth Distance (km) Brightness Sun altitude
Rises 01:19:19 0° 31° (NNE) 2,859 ? -16.9°
Reaches altitude 10° 01:22:26 10° 57° (ENE) 1,969 ? -16.7°
Maximum altitude 01:24:46 14° 90° (E) 1,713 ? -16.5°
Drops below altitude 10° 01:27:07 10° 123° (ESE) 1,994 ? -16.3°
Enters shadow 01:29:18 - 142° (SE) 2,595 ? -16.2°
